Terug naar catalogus

FLOCK 4G 16

ActiefWetenschapPO
NORAD 62638·PAYLOAD·🇺🇸 United States

Gelanceerd Jan 14, 2025 vanaf Vandenberg Space Force Base

Loading…

Volgende Passages (komende 24 uur)

TLE

VerouderendSource: Space-Track

Epoch: Sep 7, 2026, 20:06 UTC

1 62638U 25009AF  26250.83760609  .05968266  24647-5  14991-2 0  9991
2 62638  97.3651 346.8474 0014946 274.9589  84.9998 16.28711644 92550

Volg FLOCK 4G 16 in realtime met AllMySat

Download on the App Store